Погода в Лименарии

Греция     40°37′38″N   24°34′32″E
темп.,
°C
ветер,
м/с
пор.,
м/с
влажн.,
%
обл.,
%
осадки,
мм/ч
давл.,
гПа
погр.,
м
15 апреля, чт
чт1500:00+13всв677673 0.0 1014221
03:00+12всв567337 0.0 1015276
06:00+12в44721 0.0 1015246
09:00+12всв336673 0.0 1017379
12:00+13всв226576 0.0 1017481
15:00+13вюв02667 0.0 1017502
18:00+13з12674 0.0 1016465
21:00+12всв016918 0.0 1017373
16 апреля, пт
пт1600:00+12св33705 0.0 1018280
03:00+11всв34749 0.0 1018228
06:00+11в337240 0.0 1018290
09:00+11всв346666 0.0 1020451
12:00+13всв335932 0.0 1020585
15:00+13ююз1260100 0.0 1019508
18:00+12юз2166100 0.0 1019362
21:00+13св2266100 0.0 1019338
17 апреля, сб
сб1700:00+13всв3472100 0.0 1018348
03:00+12всв5672100 0.0 1017510
06:00+12всв577296 0.0 1016492
09:00+12всв6865100 0.0 1016663
12:00+13в6860100 0.1 1015739
15:00+15в4661100 0.2 1013348
18:00+15в466823 0.0 1011260
21:00+14вюв34741 0.0 1011122
18 апреля, вс
вс1800:00+13в237872 0.0 1011165
03:00+12в337678 0.0 1011236
06:00+12всв337953 0.0 1011213
09:00+13вюв227715 0.0 1012370
12:00+13ссз117844 0.0 1013397
15:00+13юз11780 0.0 1012271
18:00+15сз1175100 0.0 1011291
21:00+14с12844 0.0 1012141
19 апреля, пн
пн1900:00+13св348999 0.1 1011148
03:00+14ссв229132 0.8 100996
06:00+13с22909 0.8 1007114
09:00+13с338820 2.3 1007237
12:00+14всв237988 1.9 1005269
15:00+15ю34775 2.7 1004356
18:00+15ю4670100 6.1 1003292
21:00+12з6786100 9.3 1004393